OpenBCM V1.13 (Linux)

Packet Radio Mailbox

DB0FHN

[JN59NK Nuernberg]

 Login: GUEST





  
UA9FBV > KEPS     23.08.04 04:12l 165 Lines 7767 Bytes #999 (0) @ AMSAT
BID : ORB04235.N
Read: GUEST DL7NDR
Subj: 2Line Orbital Elements 04235.AMSAT
Path: DB0FHN<DB0FOR<DB0MRW<OK0PKL<OK0PPL<DB0RES<ER3KAZ<UA9FBV
Sent: 040823/0208Z @:UA9FBV.PRM.RUS.AS #:5877 [Perm] GATEWAY $:ORB04235.N
From: UA9FBV@UA9FBV.PRM.RUS.AS
To  : KEPS@AMSAT


HR AMSAT ORBITAL ELEMENTS FOR AMATEUR SATELLITES IN NASA FORMAT
FROM WA5QGD FORT WORTH,TX August 22, 2004
SEND SUBSCRIBE/UNSUBSCRIBE TO majordomo@amsat.org ONLY
BID: ORB04235.N

DECODE 2-LINE ELSETS WITH THE FOLLOWING KEY:
1 AAAAAU 00  0  0 BBBBB.BBBBBBBB  .CCCCCCCC  00000-0  00000-0 0  DDDZ
2 AAAAA EEE.EEEE FFF.FFFF GGGGGGG HHH.HHHH III.IIII JJ.JJJJJJJJKKKKKZ
KEY: A-CATALOGNUM B-EPOCHTIME C-DECAY D-ELSETNUM E-INCLINATION F-RAAN
G-ECCENTRICITY H-ARGPERIGEE I-MNANOM J-MNMOTION K-ORBITNUM Z-CHECKSUM

TO ALL RADIO AMATEURS BT

AO-07
1 07530U 74089B   04235.75573752 -.00000029  00000-0  10000-3 0  3112
2 07530 101.6774 281.4396 0012349  93.4012 266.8473 12.53568861362253
AO-10
1 14129U 83058B   04235.18130004 -.00000024  00000-0  10000-3 0   938
2 14129  26.5654  75.4888 6025619 117.6928 315.0596  2.05869632159375
UO-11
1 14781U 84021B   04235.47399766  .00000706  00000-0  10298-3 0  5599
2 14781  98.1788 221.4303 0008239 235.7674 124.2766 14.78978055 97643
RS-10/11
1 18129U 87054A   04235.11273237  .00000054  00000-0  41929-4 0  4909
2 18129  82.9245  99.3707 0012484 131.2846 228.9379 13.72743256860040
FO-20
1 20480U 90013C   04235.56709840 -.00000012  00000-0  45504-4 0  6993
2 20480  99.0427 100.4767 0540156 196.4140 161.8851 12.83341356681199
RS-12/13
1 21089U 91007A   04234.24331921  .00000060  00000-0  46997-4 0  7202
2 21089  82.9242 133.5001 0028214 192.4723 167.5737 13.74440283679292
RS-15
1 23439U 94085A   04232.94144538 -.00000010  00000-0  91099-3 0 08044
2 23439 064.8141 234.7278 0154386 009.8419 350.5471 11.27549982397426
FO-29
1 24278U 96046B   04234.25006391 -.00000006  00000-0  32535-4 0  7871
2 24278  98.5845 317.6933 0349863 233.1019 123.7587 13.52901888395632
SO-33
1 25509U 98061B   04235.45182958  .00000297  00000-0  49189-4 0  1794
2 25509  31.4285 280.9996 0355334  75.3563 288.6167 14.27861873304092
AO-40
1 26609U 00072B   04232.35317535 -.00000207  00000-0  10000-3 0  4264
2 26609   9.9145 346.5360 7974178 312.3740   3.9438  1.25586220 17469
UO-14
1 20437U 90005B   04235.01105287  .00000056  00000-0  36305-4 0  5738
2 20437  98.2076 255.3001 0011125  10.0788 350.0624 14.31367500761239
AO-16
1 20439U 90005D   04234.72070471  .00000057  00000-0  36553-4 0  2602
2 20439  98.2414 269.5509 0011663  18.2354 341.9248 14.31624812761247
WO-18
1 20441U 90005F   04235.16032755  .00000019  00000-0  22572-4 0  4467
2 20441  98.2564 273.9778 0012355  17.1003 343.0602 14.31700180761364
LO-19
1 20442U 90005G   04234.72505884  .00000057  00000-0  36468-4 0  2129
2 20442  98.2671 277.5884 0012585  16.9904 343.1696 14.31871430761365
UO-22
1 21575U 91050B   04235.02638983  .00000117  00000-0  50995-4 0  1845
2 21575  98.1975 206.3937 0006315 272.0148  88.0341 14.39407772687469
KO-23
1 22077U 92052B   04232.88961450 -.00000037  00000-0  10000-3 0 03098
2 22077 066.0812 057.4402 0007423 327.3997 032.6562 12.86424910564838
AO-27
1 22825U 93061C   04235.02604948  .00000029  00000-0  27323-4 0  9234
2 22825  98.2435 240.5594 0009537  72.4669 287.7554 14.29080666568491
IO-26
1 22826U 93061D   04235.87761864  .00000038  00000-0  30908-4 0  6093
2 22826  98.2412 242.6416 0010097  66.0268 294.1967 14.29317210568678
KO-25
1 22828U 93061F   04235.03099943  .00000017  00000-0  22490-4 0  8585
2 22828  98.2342 242.0808 0010853  49.2759 310.9357 14.29637775536776
TO-31
1 25396U 98043C   04234.51788956 -.00000043  00000-0  00000 0 0   618
2 25396  98.5713 304.1600 0002220 359.6321   0.4856 14.23630140317771
GO-32
1 25397U 98043D   04235.81455540  .00000014  00000-0  25101-4 0  5439
2 25397  98.5612 303.4827 0001043  48.7666 311.3630 14.23049151317896
UO-36
1 25693U 99021A   04235.83411314  .00000119  00000-0  35729-4 0  3787
2 25693  64.5589 119.8935 0047602 250.7365 108.8587 14.78373300287715
SO-41
1 26545U 00057A   04235.57836914  .00000465  00000-0  80176-4 0  8575
2 26545  64.5578 137.1377 0015657   3.8206 356.3039 14.79836204210737
MO-46
1 26548U 00057D   04235.84115037  .00000461  00000-0  75415-4 0  9571
2 26548  64.5573 122.6622 0016072 340.8239  19.2244 14.82379483211053
SO-42
1 26549U 00057E   04234.19358993  .00000324  00000-0  63031-4 0  9444
2 26549  64.5521 148.3991 0015561  23.9504 336.2321 14.78728006210395
NO-44
1 26931U 01043C   04235.81602637 -.00000034  00000-0  19064-4 0  8380
2 26931  67.0521 276.2179 0006551 270.8213  89.2129 14.29316199151124
AO-49
1 27605U 02058A   04235.47217425  .00000160  00000-0  46185-4 0  5172
2 27605  64.5601 323.4652 0081151 298.5183  60.7743 14.71913865 89886
SO-50
1 27607U 02058C   04235.68986012  .00000298  00000-0  68512-4 0  4980
2 27607  64.5604 326.7642 0082357 297.5351  61.7401 14.70699782 89836
AO-51
1 28375U 04025K   04235.15351240  .00000120  00000-0  49143-4 0   473
2 28375  98.2550 302.8933 0085151  54.1321 306.7735 14.40383959  7565
NOAA-10
1 16969U 86073A   04235.25885733  .00000096  00000-0  57843-4 0  3631
2 16969  98.7569 234.3997 0011486 284.4224  75.5681 14.27208811932459
NOAA-11
1 19531U 88089A   04235.27498037  .00000174  00000-0  11349-3 0  2217
2 19531  98.8648 318.7405 0012545  79.7716 280.4848 14.14726370820667
NOAA-12
1 21263U 91032A   04235.29485292  .00000166  00000-0  89161-4 0  7062
2 21263  98.6744 222.4026 0012009 215.7482 144.2903 14.25405440689660
MET-3/5
1 21655U 91056A   04232.95581872  .00000051  00000-0  10000-3 0 06465
2 21655 082.5586 011.4599 0012028 268.0636 091.9111 13.16996215625668
MET-2/21
1 22782U 93055A   04235.60100034  .00000233  00000-0  19741-3 0  9859
2 22782  82.5498 137.8508 0021155 239.1952 120.7132 13.83568552554282
OKEAN-4
1 23317U 94066A   04234.23829755  .00000574  00000-0  69281-4 0  4288
2 23317  82.5414 176.9942 0024215  46.3096 314.0119 14.81856959531488
NOAA-14
1 23455U 94089A   04235.29673438  .00000360  00000-0  21609-3 0  2516
2 23455  99.1339 272.0797 0010097 120.6667 239.5498 14.13482351497275
SICH-1
1 23657U 95046A   04235.54622125  .00000495  00000-0  60657-4 0  2335
2 23657  82.5316 316.5919 0025401  27.1141 333.1393 14.80898646483758
NOAA-15
1 25338U 98030A   04235.26507581  .00000088  00000-0  56230-4 0  7049
2 25338  98.5198 246.6339 0010912 146.5097 213.6781 14.24445479326194
RESURS
1 25394U 98043A   04234.89387537  .00000034  00000-0  33384-4 0  8823
2 25394  98.5774 306.0414 0000966 355.4876   4.6292 14.24018970317855
FENGYUN1
1 25730U 99025A   04234.48891991  .00000048  00000-0  49136-4 0  2132
2 25730  98.6050 242.3209 0013878 233.2110 126.7783 14.11777762272220
OKEAN-0
1 25860U 99039A   04235.51608099  .00000215  00000-0  40721-4 0  2374
2 25860  97.7927 268.0168 0002194  84.2980 275.8479 14.73103469274038
NOAA-16
1 26536U 00055A   04235.36961404 -.00000004  00000-0  22120-4 0  9940
2 26536  98.9680 186.8262 0010190 186.1370 173.9678 14.12142725201883
NOAA-17
1 27453U 02032A   04235.30384318  .00000286  00000-0  14463-3 0   192
2 27453  98.6954 306.8404 0011729 197.3451 162.7319 14.23561736112314
HUBBLE
1 20580U 90037B   04235.68396233  .00001043  00000-0  70273-4 0  1362
2 20580  28.4706  53.1564 0004417 335.0163  25.0201 14.99268038585395
UARS
1 21701U 91063B   04235.37144999 -.00000162  00000-0  69700-5 0  2507
2 21701  56.9814 321.1619 0006610 111.3304 248.8371 15.03599400708548
PO-34
1 25520U 98064B   04235.17407779  .00001356  00000-0  59379-4 0  9955
2 25520  28.4593 150.5347 0006051 208.8204 151.2075 15.15686554321168
ISS
1 25544U 98067A   04235.86712963  .00020982  00000-0  17228-3 0  5075
2 25544  51.6337 345.3180 0008007 123.1889   7.5106 15.70380867328791
OO-38
1 26063U 00004C   04235.85116962  .00000139  00000-0  67987-4 0  1427
2 26063 100.2204  34.9849 0036927 174.1137 186.0501 14.35663299239481
NO-45
1 26932U 01043D   04235.66802102 -.00000054  00000-0  11058-4 0  8357
2 26932  67.0559 276.2456 0004467 282.1697  77.8914 14.29437790151137


Read previous mail | Read next mail


 15.06.2026 06:04:41lGo back Go up